[[{"header":{"parameterUnit":"m.s-1","parameterCategory":2,"la1":30.2991,"la2":30.254,"lo1":-89.0895,"lo2":-89.0444,"dy":0.0017,"dx":0.0017,"nx":28,"ny":28,"refTime":"2025-03-06T09:00:00:Z","depth":"0","parameterNumber":2,"parameterNumberName":"U-component_of_CURRENTS"},"data":[0,0,0,0,0,0,0,0,0,0,0,0,0,0,0,0,0,0,0,0,0,0,0,0,0,0,0,0,0,0,0,0,0,0,0,0,0,0,0,0,0,0,0,0,0,0,0,0,0,0,0,0,0,0,0,0,0,0,0.3433,0.3434,0,0.3467,0.3467,0.3467,0.3495,0.3495,0.3496,0.3497,0.3349,0.3344,0.334,0,0,0,0,0,0,0,0,0,0,0,0,0,0.3353,0.3354,0.3433,0.3434,0.3435,0.3467,0.3467,0.3467,0.3495,0.3495,0.3496,0.3497,0.335,0.3345,0.334,0,0,0,0,0,0,0,0,0,0,0,0,0,0.3383,0.3355,0.3433,0.3455,0.3458,0.3467,0.3467,0.3467,0.3494,0.3495,0.3496,0.3497,0.3352,0.3346,0.3339,0.3276,0,0,0.3318,0.3315,0,0,0,0,0,0,0,0,0.3382,0.3386,0.3451,0.3454,0.3457,0.3482,0.3386,0.3396,0.3494,0.3476,0.3497,0.3498,0.3378,0.337,0.337,0.3269,0.3262,0.3317,0.3313,0.331,0.3308,0,0,0,0,0,0,0,0.338,0.3384,0.3442,0.3452,0.3456,0.3451,0.3457,0.3388,0.3414,0.3477,0.3481,0.3491,0.3378,0.3377,0.3366,0.326,0.3317,0.3311,0.3307,0.3304,0.3106,0.3105,0,0,0,0,0,0,0.3386,0.3382,0.3441,0.3443,0.3426,0.3453,0.3458,0.3469,0.3419,0.3415,0.3491,0.3493,0.3388,0.3374,0.3361,0.3299,0.331,0.3304,0.33,0.3107,0.3106,0.3105,0,0,0,0,0,0,0.3384,0.339,0.344,0.3417,0.3424,0.3454,0.3465,0.3469,0.3475,0.3432,0.3424,0.3493,0.3388,0.337,0.3304,0.3293,0.3301,0.3294,0.3109,0.3107,0.3105,0.3164,0,0,0,0,0,0,0.3381,0.3389,0.3393,0.3418,0.3426,0.3458,0.3465,0.3469,0.3482,0.3485,0.343,0.3418,0.3388,0.3315,0.3298,0.3283,0.3289,0.311,0.3108,0.3106,0.3163,0.3164,0.3165,0,0,0,0,0,0.3378,0.3382,0.3393,0.34,0.3432,0.3459,0.3462,0.3483,0.3481,0.3489,0.3444,0.342,0.3289,0.3308,0.3288,0.3272,0.3111,0.3108,0.3106,0.3163,0.3164,0.3165,0,0,0,0,0,0,0.3337,0.3386,0.3399,0.3414,0.3442,0.3466,0.3471,0.3481,0.3455,0.3444,0.34,0.3384,0.3325,0.328,0.3303,0.3207,0.3197,0.319,0.3247,0.3247,0.3248,0.3354,0.3283,0,0,0,0,0,0.3333,0.3358,0.3395,0.3408,0.342,0.3442,0.3452,0.3467,0.3455,0.3447,0.3412,0.3355,0.3295,0.3261,0.3207,0.3144,0.3231,0.3119,0.312,0.3122,0.3192,0.3321,0.3344,0.3096,0.3096,0.3096,0,0,0.3318,0.3351,0.3362,0.3402,0.3419,0.3445,0.3449,0.3467,0.348,0.3426,0.3409,0.3355,0.3279,0.3225,0.3193,0.3188,0.3231,0.3118,0.312,0.3192,0.3322,0.3347,0.337,0.3094,0.3095,0.3095,0,0,0.3313,0.3331,0.3355,0.3382,0.3421,0.3439,0.3446,0.3469,0.347,0.3441,0.3406,0.3373,0.3263,0.3247,0.3209,0.3179,0.3234,0.3121,0.3209,0.3331,0.3356,0.3379,0.3516,0.3551,0.3119,0.3119,0.312,0,0.3297,0.3336,0.3362,0.3394,0.3422,0.3439,0.3468,0.3466,0.3465,0.3477,0.344,0.3371,0.3294,0.3275,0.3261,0.319,0.328,0.3211,0.3344,0.3368,0.339,0.3526,0.3563,0.3122,0.3122,0.3121,0.3121,0,0.3318,0.3348,0.336,0.3417,0.3443,0.3468,0.3489,0.3503,0.3494,0.3507,0.3496,0.3426,0.3413,0.3346,0.3285,0.3373,0.3392,0.3339,0.3364,0.3421,0.3557,0.3595,0.3126,0.3125,0.3124,0.3123,0,0,0.3297,0.3365,0.3372,0.3418,0.3461,0.3499,0.3512,0.3558,0.3616,0.3578,0.3655,0.3539,0.3554,0.3518,0.3449,0.3529,0.3724,0.3507,0.3512,0.3688,0.4039,0.3946,0.3979,0.3706,0.3713,0.3718,0.4071,0,0.3313,0.3382,0.3407,0.3478,0.3523,0.3552,0.3588,0.3628,0.3652,0.3726,0.3683,0.3709,0.3597,0.3608,0.3672,0.3714,0.383,0.3638,0.3922,0.3932,0.388,0.4022,0.3783,0.4068,0.4108,0.4115,0.412,0,0.3334,0.339,0.3455,0.3558,0.358,0.3623,0.3736,0.3769,0.3852,0.3872,0.3916,0.3912,0.3991,0.3895,0.409,0.3978,0.4043,0.408,0.4093,0.4033,0.3912,0.4014,0.4137,0.3989,0.4179,0.4175,0.417,0,0.3348,0.3429,0.3492,0.3522,0.3627,0.3672,0.3728,0.3819,0.3893,0.4,0.409,0.416,0.4235,0.433,0.436,0.4271,0.4611,0.4488,0.4487,0.4482,0.4353,0.4323,0.4411,0.4704,0.4703,0.4702,0.4701,0,0.3378,0.3441,0.3511,0.3559,0.367,0.3719,0.3855,0.3913,0.4046,0.416,0.4186,0.4304,0.436,0.4508,0.4517,0.4642,0.475,0.4591,0.4592,0.4356,0.4324,0.4244,0.4182,0.4716,0.4713,0.471,0.4708,0,0.3415,0.3446,0.3542,0.3645,0.3684,0.3772,0.3932,0.4036,0.4148,0.4313,0.4361,0.4508,0.4673,0.4733,0.4916,0.4857,0.4826,0.4974,0.4695,0.4655,0.444,0.4389,0.4445,0.4323,0.5062,0.5062,0.5063,0,0.3458,0.3497,0.3604,0.3661,0.3717,0.3845,0.3934,0.4066,0.4169,0.4415,0.4492,0.4716,0.4799,0.504,0.4992,0.5068,0.4887,0.4906,0.4665,0.4479,0.4425,0.4247,0.4124,0.4532,0.4528,0.4525,0.4522,0,0.3546,0.356,0.3627,0.3722,0.3815,0.3931,0.4054,0.4148,0.4299,0.4435,0.4609,0.4711,0.4894,0.4836,0.4919,0.4907,0.4635,0.4836,0.4727,0.4125,0.3862,0.3722,0.4266,0.4491,0.4494,0.4496,0.4498,0.4499,0.3609,0.3652,0.3698,0.3794,0.388,0.3958,0.4002,0.4117,0.4248,0.4334,0.4527,0.4544,0.4608,0.4652,0.465,0.4446,0.4459,0.4259,0.426,0.4133,0.3858,0.4346,0.4486,0.4489,0.4491,0.4494,0.4495,0,0.3707,0.3713,0.3771,0.3842,0.3887,0.3939,0.4035,0.4015,0.4066,0.4146,0.4207,0.4139,0.4103,0.4128,0.4028,0.3878,0.3685,0.3767,0.3453,0.3395,0.3919,0.3727,0.3603,0.3603,0.3603,0.3604,0.3604,0.3604,0.3764,0.3802,0.3793,0.3825,0.3846,0.3795,0.38,0.3766,0.3765,0.3651,0.354,0.3528,0.3666,0.3693,0.3534,0.3445,0.3186,0.3038,0.3091,0.342,0.3462,0.3503,0.3307,0.3097,0.3096,0.2358,0.2352,0.2348]},{"header":{"parameterUnit":"m.s-1","parameterCategory":2,"la1":30.2991,"la2":30.254,"lo1":-89.0895,"lo2":-89.0444,"dy":0.0017,"dx":0.0017,"nx":28,"ny":28,"refTime":"2025-03-06T09:00:00:Z","depth":"0","parameterNumber":3,"parameterNumberName":"V-component_of_CURRENTS"},"data":[0,0,0,0,0,0,0,0,0,0,0,0,0,0,0,0,0,0,0,0,0,0,0,0,0,0,0,0,0,0,0,0,0,0,0,0,0,0,0,0,0,0,0,0,0,0,0,0,0,0,0,0,0,0,0,0,0,0,-0.0012,-0.0012,0,-0.0051,-0.0052,-0.0052,-0.01,-0.0101,-0.0102,-0.0102,-0.0133,-0.0133,-0.0133,0,0,0,0,0,0,0,0,0,0,0,0,0,0.0022,0.0022,-0.0012,-0.0013,-0.0013,-0.0051,-0.0052,-0.0052,-0.01,-0.0101,-0.0102,-0.0103,-0.0132,-0.0133,-0.0133,0,0,0,0,0,0,0,0,0,0,0,0,0,-0.0002,0.0021,-0.0012,-0.0042,-0.0045,-0.0051,-0.0052,-0.0052,-0.01,-0.0101,-0.0102,-0.0103,-0.0132,-0.0133,-0.0133,-0.0109,0,0,-0.0133,-0.0133,0,0,0,0,0,0,0,0,-0.0001,-0.0003,-0.0037,-0.004,-0.0043,-0.0073,-0.0051,-0.0071,-0.0099,-0.0078,-0.0102,-0.0104,-0.0111,-0.0113,-0.0117,-0.011,-0.0112,-0.0133,-0.0133,-0.0133,-0.0133,0,0,0,0,0,0,0,0.0001,-0.0002,-0.0027,-0.0037,-0.0041,-0.0053,-0.0058,-0.0055,-0.0087,-0.008,-0.0084,-0.0089,-0.0113,-0.0117,-0.0118,-0.0112,-0.0133,-0.0133,-0.0133,-0.0133,-0.0116,-0.0116,0,0,0,0,0,0,0.0006,-0.0,-0.0026,-0.0028,-0.0025,-0.0053,-0.0058,-0.0061,-0.0087,-0.0092,-0.0088,-0.0091,-0.0116,-0.0118,-0.0119,-0.0092,-0.0133,-0.0133,-0.0133,-0.0116,-0.0116,-0.0115,0,0,0,0,0,0,0.0007,0.0004,-0.0024,-0.0016,-0.002,-0.0052,-0.0056,-0.0062,-0.007,-0.0093,-0.0099,-0.0091,-0.0117,-0.0119,-0.0113,-0.0094,-0.0133,-0.0133,-0.0117,-0.0116,-0.0116,-0.0037,0,0,0,0,0,0,0.0008,0.0005,0.0008,-0.0015,-0.0021,-0.0015,-0.0055,-0.0062,-0.0071,-0.0076,-0.0097,-0.0101,-0.0118,-0.0113,-0.0113,-0.0094,-0.0133,-0.0118,-0.0117,-0.0116,-0.0041,-0.0034,-0.0028,0,0,0,0,0,0.001,0.0032,0.0009,0.0006,-0.0016,-0.0013,-0.0016,-0.0044,-0.007,-0.0059,-0.0081,-0.0101,-0.0108,-0.0112,-0.0113,-0.0093,-0.0118,-0.0117,-0.0116,-0.0043,-0.0035,-0.0029,0,0,0,0,0,0,0.0066,0.0029,0.0002,0.0016,0.0002,-0.0022,-0.0012,-0.0038,-0.0047,-0.0055,-0.0085,-0.0089,-0.0081,-0.0098,-0.0101,-0.0089,-0.012,-0.0119,-0.0064,-0.0057,-0.0051,-0.0023,-0.0133,0,0,0,0,0,0.0075,0.0071,0.004,0.0052,0.0046,0.0013,0.001,-0.0011,-0.0025,-0.0031,-0.0047,-0.0066,-0.0075,-0.0074,-0.0084,-0.0065,-0.0065,-0.0059,-0.0052,-0.0047,-0.0026,-0.0017,-0.0007,-0.0112,-0.0112,-0.0112,0,0,0.01,0.008,0.0077,0.0062,0.0047,0.0065,0.0009,0.0011,0.0026,-0.003,-0.001,-0.0042,-0.0067,-0.0053,-0.0051,-0.0064,-0.0015,-0.0046,-0.004,-0.0023,-0.0015,-0.0004,0.0005,-0.0111,-0.0111,-0.0111,0,0,0.0159,0.013,0.0147,0.0141,0.0121,0.0104,0.0106,0.0082,0.007,0.0079,0.0037,0.0019,0.0014,-0.0,-0.001,0.0026,0.0014,0.0015,0.0077,0.0086,0.0095,0.0103,0.0133,0.0144,0.0022,0.0022,0.0022,0,0.0189,0.0208,0.0158,0.0181,0.0192,0.0128,0.0167,0.0151,0.0133,0.0136,0.0098,0.0078,0.0043,0.0064,0.0062,0.0043,0.0053,0.0054,0.0096,0.0104,0.0111,0.014,0.015,0.0026,0.0026,0.0025,0.0025,0,0.0263,0.028,0.0297,0.0298,0.0303,0.0327,0.0297,0.0295,0.0262,0.0244,0.0245,0.0191,0.0179,0.0156,0.0118,0.0148,0.0143,0.0102,0.0084,0.0127,0.0154,0.0163,0.0032,0.003,0.0029,0.0028,0,0,0.0319,0.0344,0.0348,0.0376,0.0368,0.0385,0.0406,0.0416,0.0438,0.0393,0.0428,0.037,0.0321,0.0306,0.0249,0.0245,0.0285,0.0198,0.0197,0.0241,0.0332,0.0297,0.0304,0.0254,0.0256,0.0257,0.0337,0,0.0391,0.047,0.0458,0.0536,0.0576,0.0538,0.0568,0.0562,0.0542,0.0558,0.0485,0.0489,0.0384,0.0374,0.0352,0.0304,0.0312,0.027,0.0273,0.0274,0.0248,0.0314,0.0279,0.0344,0.0346,0.0347,0.0349,0,0.0461,0.0506,0.0599,0.0657,0.067,0.0703,0.074,0.0761,0.075,0.0734,0.0709,0.065,0.0627,0.0527,0.0486,0.0467,0.0411,0.0368,0.037,0.0319,0.0257,0.0296,0.036,0.0178,0.0363,0.0361,0.036,0,0.0524,0.0603,0.0685,0.0706,0.0757,0.0787,0.0809,0.0813,0.0845,0.0849,0.0875,0.0819,0.0816,0.0728,0.061,0.0558,0.0583,0.0498,0.0426,0.0424,0.0386,0.0377,0.0284,0.0489,0.0489,0.0488,0.0488,0,0.0605,0.0668,0.072,0.0765,0.0852,0.0861,0.0941,0.0947,0.0982,0.1049,0.0967,0.1019,0.0866,0.084,0.0701,0.0612,0.0656,0.0467,0.0447,0.0412,0.0405,0.0235,0.0122,0.0491,0.0491,0.049,0.049,0,0.0657,0.0696,0.0787,0.0859,0.0883,0.094,0.1017,0.1068,0.1101,0.1192,0.1202,0.1199,0.1175,0.1029,0.0926,0.076,0.0548,0.0612,0.059,0.0565,0.0276,0.0169,0.008,0.0001,0.0539,0.0538,0.0538,0,0.0695,0.0747,0.0842,0.0883,0.0915,0.0998,0.1045,0.1107,0.1174,0.131,0.1365,0.1393,0.1432,0.128,0.1006,0.0803,0.06,0.06,0.0467,0.0284,0.0151,0.0072,0.0005,0.0462,0.0461,0.046,0.0459,0,0.0753,0.0775,0.0836,0.0922,0.0985,0.1083,0.1171,0.1258,0.1357,0.1487,0.1663,0.1729,0.1581,0.1377,0.1069,0.0884,0.0439,0.0577,0.0393,0.0097,0.0002,-0.0091,0.0398,0.0453,0.0454,0.0454,0.0455,0.0455,0.0768,0.0808,0.0869,0.0953,0.1033,0.1161,0.1273,0.1411,0.16,0.1832,0.1877,0.2037,0.1665,0.1255,0.0979,0.041,0.0421,0.0202,0.0101,0.0049,-0.0077,0.0407,0.042,0.0421,0.0421,0.0422,0.0422,0,0.0773,0.0817,0.0893,0.1006,0.111,0.1158,0.1346,0.1497,0.1769,0.1994,0.2187,0.2091,0.1637,0.1137,0.038,-0.0003,-0.0153,-0.0219,-0.0354,-0.0391,0.0052,-0.0006,-0.0092,-0.0092,-0.0092,-0.0092,-0.0092,-0.0091,0.0776,0.0827,0.0874,0.1043,0.114,0.1321,0.1455,0.1708,0.1916,0.2225,0.2341,0.2387,0.1961,0.0632,-0.0244,-0.0442,-0.0722,-0.0787,-0.0889,-0.0628,-0.0598,-0.0569,-0.065,-0.0869,-0.087,-0.13,-0.1304,-0.1308]}],[{"header":{"parameterUnit":"m.s-1","parameterCategory":2,"la1":30.2991,"la2":30.254,"lo1":-89.0895,"lo2":-89.0444,"dy":0.0017,"dx":0.0017,"nx":28,"ny":28,"refTime":"2025-03-06T09:00:00:Z","depth":"2","parameterNumber":2,"parameterNumberName":"U-component_of_CURRENTS"},"data":[0,0,0,0,0,0,0,0,0,0,0,0,0,0,0,0,0,0,0,0,0,0,0,0,0,0,0,0,0,0,0,0,0,0,0,0,0,0,0,0,0,0,0,0,0,0,0,0,0,0,0,0,0,0,0,0,0,0,0.2461,0.2461,0,0.2475,0.2474,0.2474,0.2511,0.2512,0.2513,0.2515,0.2546,0.2545,0.2545,0,0,0,0,0,0,0,0,0,0,0,0,0,0.2405,0.2406,0.2461,0.2461,0.2462,0.2475,0.2474,0.2474,0.2511,0.2512,0.2514,0.2515,0.2546,0.2545,0.2545,0,0,0,0,0,0,0,0,0,0,0,0,0,0.242,0.2406,0.2461,0.2486,0.2489,0.2475,0.2474,0.2474,0.251,0.2512,0.2514,0.2516,0.2546,0.2545,0.2545,0.2503,0,0,0.2543,0.2543,0,0,0,0,0,0,0,0,0.2419,0.2421,0.2481,0.2484,0.2487,0.2498,0.2467,0.2486,0.251,0.2496,0.2515,0.2517,0.2533,0.2534,0.2524,0.2504,0.2506,0.2543,0.2543,0.2542,0.2542,0,0,0,0,0,0,0,0.2418,0.2421,0.2461,0.2482,0.2486,0.2476,0.248,0.247,0.25,0.2498,0.2502,0.2511,0.2534,0.2525,0.2525,0.2506,0.2543,0.2543,0.2542,0.2542,0.2556,0.2556,0,0,0,0,0,0,0.2428,0.242,0.246,0.2462,0.2463,0.2476,0.248,0.2488,0.25,0.2505,0.251,0.2513,0.2525,0.2526,0.2527,0.257,0.2542,0.2542,0.2542,0.2555,0.2556,0.2556,0,0,0,0,0,0,0.2427,0.2432,0.246,0.2446,0.2449,0.2476,0.2483,0.2487,0.2487,0.251,0.2514,0.2507,0.2526,0.2528,0.2548,0.2568,0.2542,0.2541,0.2554,0.2555,0.2556,0.2597,0,0,0,0,0,0,0.2425,0.2431,0.2438,0.2446,0.2451,0.2462,0.2482,0.2486,0.2492,0.2496,0.2509,0.2513,0.2528,0.2549,0.2547,0.2567,0.2541,0.2553,0.2555,0.2556,0.2595,0.26,0.2603,0,0,0,0,0,0.2423,0.2422,0.2438,0.2443,0.246,0.2462,0.2462,0.2484,0.249,0.2489,0.2514,0.2513,0.2556,0.2549,0.2547,0.2567,0.2553,0.2554,0.2556,0.2593,0.2599,0.2603,0,0,0,0,0,0,0.2396,0.2426,0.2444,0.2452,0.2464,0.2471,0.2474,0.2477,0.2489,0.2509,0.2515,0.2521,0.2551,0.2544,0.2535,0.2575,0.2556,0.2557,0.2585,0.259,0.2594,0.2621,0.254,0,0,0,0,0,0.2395,0.2404,0.243,0.2433,0.2445,0.2455,0.2458,0.2479,0.2493,0.2499,0.2512,0.2531,0.255,0.256,0.2575,0.2581,0.2622,0.2594,0.2598,0.2602,0.2623,0.2698,0.2712,0.2562,0.2561,0.2561,0,0,0.2385,0.2402,0.2408,0.2429,0.2441,0.2461,0.2461,0.2478,0.2505,0.25,0.2535,0.2544,0.2556,0.2586,0.2597,0.2586,0.2668,0.2604,0.2607,0.2627,0.2702,0.2717,0.273,0.2563,0.2562,0.2562,0,0,0.2373,0.2388,0.2402,0.2417,0.2452,0.2463,0.2468,0.249,0.2514,0.2541,0.2558,0.2584,0.2593,0.2621,0.263,0.2657,0.269,0.2654,0.2695,0.2768,0.2782,0.2794,0.2879,0.2899,0.2653,0.2654,0.2654,0,0.2376,0.2389,0.2401,0.2424,0.2449,0.2464,0.2494,0.251,0.2538,0.2567,0.2567,0.2618,0.2617,0.2667,0.2685,0.2669,0.2724,0.2675,0.2776,0.2789,0.2802,0.2886,0.2907,0.2656,0.2655,0.2655,0.2655,0,0.2376,0.2399,0.2405,0.2448,0.2468,0.2492,0.2535,0.256,0.2586,0.2612,0.2672,0.2685,0.2725,0.2715,0.2709,0.2787,0.2804,0.2777,0.2768,0.282,0.2904,0.2926,0.2659,0.2658,0.2657,0.2657,0,0,0.2371,0.2405,0.2411,0.2443,0.2493,0.2511,0.2563,0.2617,0.267,0.2696,0.2766,0.2785,0.2807,0.282,0.2817,0.2862,0.2986,0.286,0.2863,0.2954,0.3176,0.3074,0.3088,0.2984,0.2988,0.299,0.3206,0,0.2383,0.2419,0.244,0.2488,0.2519,0.2563,0.2611,0.2667,0.2722,0.2791,0.282,0.2886,0.2844,0.2883,0.2923,0.2982,0.3043,0.2932,0.3104,0.311,0.3021,0.3109,0.2843,0.3002,0.3227,0.3231,0.3233,0,0.2391,0.2416,0.2461,0.2531,0.2553,0.2588,0.2688,0.274,0.2837,0.289,0.2959,0.2994,0.3081,0.3029,0.3176,0.3116,0.3157,0.3185,0.3193,0.3101,0.3048,0.2983,0.3033,0.3269,0.3267,0.3264,0.3262,0,0.2382,0.2439,0.2474,0.2496,0.2572,0.2617,0.2669,0.277,0.2831,0.2972,0.3044,0.3141,0.3224,0.3287,0.3339,0.329,0.3494,0.3434,0.3384,0.3378,0.3186,0.3156,0.3541,0.3541,0.3541,0.354,0.3539,0,0.2388,0.2425,0.2473,0.2495,0.2557,0.2627,0.271,0.2793,0.2911,0.2996,0.3102,0.3189,0.3296,0.3402,0.3421,0.3486,0.3576,0.3428,0.3434,0.319,0.316,0.3403,0.3384,0.3548,0.3546,0.3545,0.3543,0,0.2386,0.2408,0.2464,0.2537,0.2552,0.2613,0.2705,0.2759,0.2912,0.3036,0.3093,0.3277,0.3434,0.3516,0.3653,0.3602,0.366,0.3648,0.3361,0.3327,0.3482,0.3462,0.3646,0.3645,0.3643,0.3642,0.3641,0,0.239,0.2405,0.2474,0.2485,0.2519,0.2585,0.2607,0.2739,0.2808,0.3065,0.312,0.3337,0.3428,0.361,0.3596,0.3653,0.3687,0.3412,0.3239,0.3509,0.3497,0.348,0.3463,0.3024,0.3018,0.3013,0.3009,0,0.239,0.2414,0.2442,0.2447,0.2468,0.2502,0.2569,0.2613,0.2787,0.2907,0.3076,0.3181,0.3381,0.3321,0.3411,0.3385,0.3377,0.3311,0.3714,0.3009,0.2931,0.2915,0.2918,0.2965,0.297,0.2973,0.2975,0.2977,0.2385,0.2396,0.2389,0.2413,0.243,0.2435,0.2426,0.2488,0.257,0.2735,0.29,0.2988,0.3081,0.3074,0.3003,0.2961,0.3175,0.302,0.3032,0.305,0.291,0.283,0.2823,0.2827,0.283,0.2832,0.2834,0,0.2346,0.2348,0.2341,0.2357,0.233,0.237,0.2398,0.2349,0.239,0.2541,0.2646,0.2502,0.2507,0.2603,0.247,0.2468,0.2414,0.2367,0.2269,0.2317,0.2358,0.2177,0.19,0.1896,0.1893,0.189,0,0,0.2316,0.2286,0.2283,0.2243,0.2252,0.2207,0.2203,0.2128,0.2171,0.2154,0.2199,0.2419,0.254,0.2186,0.2148,0.1999,0.2133,0.1923,0.2685,0.262,0.2656,0.2761,0.2541,0,0,0,0,0]},{"header":{"parameterUnit":"m.s-1","parameterCategory":2,"la1":30.2991,"la2":30.254,"lo1":-89.0895,"lo2":-89.0444,"dy":0.0017,"dx":0.0017,"nx":28,"ny":28,"refTime":"2025-03-06T09:00:00:Z","depth":"2","parameterNumber":3,"parameterNumberName":"V-component_of_CURRENTS"},"data":[0,0,0,0,0,0,0,0,0,0,0,0,0,0,0,0,0,0,0,0,0,0,0,0,0,0,0,0,0,0,0,0,0,0,0,0,0,0,0,0,0,0,0,0,0,0,0,0,0,0,0,0,0,0,0,0,0,0,0.0098,0.0097,0,0.0064,0.0064,0.0063,0.0029,0.0029,0.0029,0.0028,-0.0043,-0.0044,-0.0045,0,0,0,0,0,0,0,0,0,0,0,0,0,0.0126,0.0125,0.0098,0.0097,0.0097,0.0064,0.0064,0.0063,0.003,0.0029,0.0028,0.0028,-0.0042,-0.0044,-0.0046,0,0,0,0,0,0,0,0,0,0,0,0,0,0.0105,0.0125,0.0098,0.0076,0.0074,0.0064,0.0064,0.0063,0.003,0.0029,0.0028,0.0028,-0.0042,-0.0044,-0.0046,-0.0046,0,0,-0.0053,-0.0054,0,0,0,0,0,0,0,0,0.0106,0.0104,0.008,0.0078,0.0075,0.005,0.0048,0.0025,0.003,0.0046,0.0028,0.0027,-0.0014,-0.0019,-0.0023,-0.005,-0.0053,-0.0053,-0.0054,-0.0055,-0.0056,0,0,0,0,0,0,0,0.0108,0.0105,0.0084,0.0079,0.0077,0.0066,0.0062,0.0043,0.0019,0.0045,0.0042,0.0039,-0.0016,-0.0021,-0.0025,-0.0054,-0.0053,-0.0055,-0.0056,-0.0057,-0.0106,-0.0106,0,0,0,0,0,0,0.0113,0.0107,0.0085,0.0083,0.009,0.0066,0.0062,0.0059,0.002,0.0014,0.004,0.0038,-0.0017,-0.0023,-0.0028,-0.0036,-0.0055,-0.0057,-0.0058,-0.0106,-0.0106,-0.0106,0,0,0,0,0,0,0.0114,0.0112,0.0087,0.0094,0.009,0.0066,0.0063,0.0059,0.0053,0.0017,0.001,0.0039,-0.0018,-0.0025,-0.0045,-0.0039,-0.0058,-0.006,-0.0106,-0.0106,-0.0106,-0.0048,0,0,0,0,0,0,0.0115,0.0112,0.0111,0.0095,0.009,0.0087,0.0064,0.0058,0.0052,0.0049,0.0014,0.0007,-0.0019,-0.0041,-0.0047,-0.0042,-0.0062,-0.0107,-0.0106,-0.0106,-0.005,-0.0046,-0.0043,0,0,0,0,0,0.0116,0.0125,0.0112,0.0109,0.009,0.0088,0.0085,0.0065,0.0053,0.0057,0.0029,0.0008,-0.0045,-0.0042,-0.0049,-0.0045,-0.0107,-0.0106,-0.0106,-0.0052,-0.0047,-0.0043,0,0,0,0,0,0,0.0141,0.0122,0.0107,0.011,0.01,0.0082,0.0084,0.0071,0.0053,0.0045,0.0011,0.0002,-0.0014,-0.0038,-0.0034,-0.0061,-0.0081,-0.0082,-0.0037,-0.0032,-0.0029,-0.0008,-0.0064,0,0,0,0,0,0.0145,0.0144,0.0125,0.0128,0.0124,0.0104,0.01,0.0086,0.0068,0.006,0.0035,0.0005,-0.0019,-0.0031,-0.0057,-0.0066,-0.0085,-0.0071,-0.0067,-0.0064,-0.0052,-0.0075,-0.0072,-0.0106,-0.0106,-0.0106,0,0,0.0155,0.0145,0.0143,0.0133,0.0122,0.0129,0.01,0.0098,0.01,0.0055,0.005,0.0018,-0.0019,-0.0033,-0.0043,-0.0052,-0.0064,-0.0064,-0.006,-0.0051,-0.0075,-0.0072,-0.0068,-0.0106,-0.0106,-0.0106,0,0,0.0184,0.0166,0.0177,0.0172,0.0159,0.0147,0.0149,0.0132,0.0119,0.011,0.0075,0.005,0.0017,-0.0007,-0.0024,-0.0014,-0.0044,-0.0028,0.001,-0.0012,-0.0009,-0.0007,-0.0023,-0.0023,-0.0025,-0.0025,-0.0025,0,0.0194,0.0207,0.0181,0.0194,0.0198,0.0161,0.0181,0.0164,0.0141,0.0136,0.0114,0.0065,0.0032,0.0016,0.0017,-0.0004,-0.002,-0.0001,-0.0006,-0.0004,-0.0002,-0.002,-0.002,-0.0022,-0.0022,-0.0022,-0.0023,0,0.0233,0.0243,0.0252,0.0253,0.0254,0.0264,0.0241,0.0232,0.021,0.0192,0.0169,0.012,0.0095,0.0074,0.0049,0.0042,0.0026,0.0002,-0.0012,0.0005,-0.0015,-0.0016,-0.0018,-0.0019,-0.002,-0.002,0,0,0.0256,0.0276,0.0278,0.0299,0.0287,0.0298,0.0295,0.029,0.03,0.0253,0.0264,0.0205,0.0177,0.0155,0.0113,0.0089,0.0081,0.0056,0.0054,0.005,0.0038,-0.0003,-0.0009,0.0057,0.0057,0.0057,0.0021,0,0.0294,0.0343,0.0336,0.0382,0.0408,0.0378,0.0386,0.0371,0.0351,0.0348,0.0282,0.0271,0.0207,0.02,0.0163,0.0111,0.008,0.0094,0.0013,0.0011,-0.0019,-0.0011,0.0018,-0.0014,0.0019,0.0019,0.0019,0,0.0332,0.0365,0.042,0.0459,0.0467,0.0482,0.0497,0.0501,0.0473,0.0458,0.0422,0.0372,0.033,0.0272,0.0183,0.0196,0.0124,0.007,0.0067,0.001,-0.0032,-0.0028,-0.0018,0.0017,0.0017,0.0017,0.0017,0,0.0374,0.0423,0.0475,0.0488,0.0518,0.0534,0.0546,0.0534,0.0563,0.0533,0.0553,0.047,0.0458,0.0349,0.0228,0.0211,0.0129,0.0091,-0.0019,-0.0023,-0.0023,-0.0027,0.0021,0.0021,0.0021,0.0021,0.0021,0,0.0422,0.0463,0.0502,0.0533,0.0597,0.0594,0.0659,0.0646,0.0666,0.073,0.0621,0.0649,0.0479,0.0404,0.0269,0.013,0.0158,-0.0006,-0.0034,-0.0003,-0.0005,-0.0,-0.0002,0.002,0.002,0.002,0.002,0,0.0462,0.0483,0.0553,0.0601,0.0621,0.0669,0.0749,0.0807,0.0798,0.088,0.088,0.0803,0.0702,0.0516,0.0352,0.0205,0.0058,-0.0006,0.0042,0.0019,-0.009,-0.0088,-0.0125,-0.0127,-0.0129,-0.013,-0.0131,0,0.0491,0.053,0.0609,0.0659,0.0686,0.0765,0.0833,0.0867,0.0955,0.099,0.1053,0.0955,0.0912,0.063,0.0354,0.0095,0.0059,-0.0058,-0.01,-0.008,-0.0104,-0.0101,-0.0097,-0.0073,-0.0073,-0.0073,-0.0074,0,0.055,0.0571,0.0629,0.0736,0.0819,0.0934,0.1043,0.1133,0.1202,0.1251,0.1306,0.1255,0.0979,0.0712,0.0333,0.0156,-0.0021,-0.0076,-0.0053,-0.0049,-0.0036,-0.0058,-0.0055,-0.0077,-0.0077,-0.0077,-0.0076,-0.0076,0.0589,0.064,0.0716,0.0827,0.0925,0.1086,0.1205,0.1331,0.1462,0.1546,0.1495,0.1416,0.1097,0.0606,0.0294,-0.0044,-0.0038,-0.0159,-0.0155,-0.0151,-0.0147,-0.0139,-0.0198,-0.0198,-0.0198,-0.0198,-0.0199,0,0.0633,0.07,0.0807,0.0948,0.1081,0.1127,0.1335,0.1449,0.1611,0.166,0.1663,0.1342,0.1032,0.0675,0.0176,-0.0132,-0.0145,-0.0225,-0.0168,-0.0162,-0.0158,-0.0153,-0.0206,-0.0207,-0.0208,-0.0208,0,0,0.0662,0.0756,0.0825,0.1053,0.1165,0.1359,0.1486,0.1619,0.1694,0.1717,0.1664,0.1559,0.1131,0.0771,0.036,0.0083,0.0031,0.0024,0.0061,0.0182,0.019,-0.0093,-0.0077,0,0,0,0,0]}],[{"header":{"parameterUnit":"m.s-1","parameterCategory":2,"la1":30.2991,"la2":30.254,"lo1":-89.0895,"lo2":-89.0444,"dy":0.0017,"dx":0.0017,"nx":28,"ny":28,"refTime":"2025-03-06T09:00:00:Z","depth":"4","parameterNumber":2,"parameterNumberName":"U-component_of_CURRENTS"},"data":[0,0,0,0,0,0,0,0,0,0,0,0,0,0,0,0,0,0,0,0,0,0,0,0,0,0,0,0,0,0,0,0,0,0,0,0,0,0,0,0,0,0,0,0,0,0,0,0,0,0,0,0,0,0,0,0,0,0,0.1387,0.1388,0,0.1471,0.1472,0.1473,0.1536,0.1537,0.1537,0.1538,0.1682,0.1686,0.1689,0,0,0,0,0,0,0,0,0,0,0,0,0,0.1271,0.1273,0.1387,0.1388,0.1389,0.1471,0.1472,0.1473,0.1536,0.1537,0.1538,0.1538,0.1681,0.1685,0.1689,0,0,0,0,0,0,0,0,0,0,0,0,0,0.1333,0.1273,0.1387,0.1432,0.1437,0.1471,0.1472,0.1473,0.1536,0.1537,0.1538,0.1539,0.168,0.1685,0.1689,0.1697,0,0,0.1704,0.1706,0,0,0,0,0,0,0,0,0.133,0.1337,0.1424,0.1429,0.1434,0.1496,0.1484,0.1552,0.1535,0.1496,0.1538,0.1539,0.1626,0.1635,0.1645,0.1704,0.171,0.1704,0.1707,0.1709,0.1711,0,0,0,0,0,0,0,0.1325,0.1334,0.1418,0.1425,0.1432,0.1445,0.1455,0.1497,0.1554,0.15,0.1505,0.1517,0.1629,0.164,0.1649,0.1712,0.1704,0.1708,0.1711,0.1713,0.1884,0.1885,0,0,0,0,0,0,0.1318,0.133,0.1416,0.1421,0.1386,0.1446,0.1457,0.1473,0.1552,0.1565,0.1516,0.1519,0.1632,0.1644,0.1655,0.1767,0.1709,0.1714,0.1716,0.1882,0.1884,0.1886,0,0,0,0,0,0,0.1315,0.1325,0.1412,0.1378,0.1391,0.1447,0.1465,0.1475,0.1521,0.1564,0.1578,0.1556,0.1633,0.1648,0.1729,0.177,0.1716,0.172,0.188,0.1883,0.1885,0.1929,0,0,0,0,0,0,0.1312,0.1323,0.1346,0.1378,0.1393,0.1454,0.1464,0.1476,0.1525,0.1532,0.1603,0.1615,0.1635,0.1722,0.1733,0.1775,0.1724,0.1878,0.1881,0.1884,0.1925,0.1932,0.1939,0,0,0,0,0,0.1307,0.1326,0.1346,0.1358,0.1417,0.1456,0.1465,0.1506,0.1526,0.1551,0.1606,0.1615,0.175,0.1727,0.174,0.1784,0.1876,0.188,0.1884,0.1922,0.1931,0.1938,0,0,0,0,0,0,0.1292,0.1336,0.1358,0.1393,0.1433,0.1468,0.1497,0.1524,0.1584,0.1603,0.164,0.1657,0.1743,0.1756,0.173,0.1842,0.1813,0.1819,0.1837,0.1846,0.1852,0.184,0.1728,0,0,0,0,0,0.1297,0.1324,0.1368,0.1399,0.1422,0.1466,0.1492,0.1523,0.1572,0.1601,0.1651,0.1706,0.1761,0.1799,0.1845,0.1908,0.1915,0.1943,0.195,0.1956,0.1954,0.1998,0.2008,0.1898,0.1898,0.1898,0,0,0.1298,0.1328,0.1345,0.1398,0.1433,0.1473,0.1485,0.1536,0.1581,0.1607,0.1694,0.1738,0.1784,0.1857,0.1896,0.188,0.1993,0.196,0.1965,0.1961,0.2003,0.2013,0.2022,0.1901,0.19,0.19,0,0,0.1307,0.1345,0.1371,0.1407,0.1467,0.1496,0.1519,0.1577,0.162,0.1699,0.1731,0.1797,0.1884,0.1919,0.1948,0.2019,0.2028,0.2042,0.2069,0.2112,0.2121,0.2129,0.2159,0.2169,0.2044,0.2044,0.2044,0,0.1314,0.1352,0.1386,0.1423,0.1459,0.1511,0.1553,0.1599,0.168,0.1718,0.1738,0.1867,0.1909,0.1987,0.2017,0.2034,0.2057,0.2034,0.2119,0.2127,0.2135,0.2164,0.2174,0.2047,0.2046,0.2046,0.2046,0,0.1335,0.138,0.14,0.1464,0.1507,0.1551,0.1616,0.1672,0.1731,0.1777,0.1878,0.1935,0.2007,0.2035,0.2055,0.2132,0.2132,0.2123,0.2095,0.2148,0.2176,0.2186,0.205,0.2049,0.2049,0.2048,0,0,0.1318,0.1399,0.1412,0.1448,0.1535,0.1568,0.1648,0.1726,0.178,0.1866,0.1938,0.2033,0.2065,0.2098,0.2131,0.217,0.2249,0.2177,0.2178,0.2199,0.2346,0.2204,0.2201,0.2263,0.2265,0.2266,0.2346,0,0.1333,0.1393,0.144,0.1513,0.155,0.1622,0.1684,0.1763,0.1841,0.1923,0.1992,0.2081,0.2089,0.2141,0.2181,0.2244,0.2278,0.2228,0.2297,0.2299,0.2159,0.2209,0.2272,0.2354,0.2356,0.2358,0.2359,0,0.1339,0.1381,0.1444,0.1531,0.1556,0.1613,0.1718,0.1784,0.1899,0.1959,0.2049,0.2115,0.2214,0.2202,0.2316,0.2291,0.2321,0.235,0.2353,0.2208,0.2174,0.2289,0.2378,0.2376,0.2375,0.2374,0.2373,0,0.1292,0.1385,0.1434,0.1465,0.1569,0.1621,0.1689,0.1799,0.1863,0.1997,0.2066,0.2171,0.2256,0.2309,0.2389,0.237,0.2494,0.2469,0.236,0.235,0.2435,0.2425,0.2525,0.2525,0.2525,0.2525,0.2524,0,0.1272,0.1316,0.1418,0.1446,0.1506,0.1598,0.1681,0.1758,0.1882,0.1955,0.2087,0.2162,0.2293,0.2385,0.2416,0.2424,0.2519,0.2367,0.2361,0.2453,0.2445,0.2443,0.2432,0.2528,0.2527,0.2526,0.2526,0,0.1207,0.1273,0.133,0.1445,0.1484,0.1528,0.1665,0.1714,0.1856,0.196,0.2017,0.2195,0.2311,0.2411,0.2516,0.2455,0.2477,0.245,0.2554,0.2553,0.2296,0.2287,0.2325,0.2321,0.2317,0.2314,0.2311,0,0.1172,0.1197,0.1311,0.1334,0.1392,0.1476,0.1522,0.1672,0.1731,0.1957,0.1991,0.2181,0.2277,0.2322,0.2419,0.2459,0.243,0.2417,0.2332,0.2285,0.2277,0.2273,0.227,0.2305,0.2304,0.2303,0.2302,0,0.11,0.1152,0.1196,0.1253,0.1306,0.1351,0.1446,0.1488,0.1662,0.1812,0.1936,0.2029,0.2152,0.2237,0.2293,0.231,0.2411,0.2377,0.2384,0.2304,0.2262,0.2256,0.2257,0.2289,0.2291,0.2293,0.2293,0,0.1048,0.1042,0.1106,0.1145,0.1202,0.1218,0.1287,0.1378,0.1467,0.1727,0.176,0.1965,0.2128,0.2161,0.2208,0.2222,0.218,0.2096,0.2116,0.2132,0.203,0.1946,0.1873,0,0,0,0,0,0.0974,0.0954,0.0989,0.1021,0.1083,0.1118,0.1225,0.1303,0.1489,0.1528,0.1646,0.1756,0.187,0.1974,0.195,0.2102,0.2171,0.2062,0.2078,0.2218,0.2233,0.213,0,0,0,0,0,0,0.0911,0.0932,0.0944,0.092,0.0931,0.0977,0.1042,0.1167,0.1205,0.1411,0.1488,0.1636,0.1772,0.1868,0.1914,0.1941,0.1911,0.2181,0.2176,0.221,0.2223,0.2235,0.2135,0,0,0,0,0]},{"header":{"parameterUnit":"m.s-1","parameterCategory":2,"la1":30.2991,"la2":30.254,"lo1":-89.0895,"lo2":-89.0444,"dy":0.0017,"dx":0.0017,"nx":28,"ny":28,"refTime":"2025-03-06T09:00:00:Z","depth":"4","parameterNumber":3,"parameterNumberName":"V-component_of_CURRENTS"},"data":[0,0,0,0,0,0,0,0,0,0,0,0,0,0,0,0,0,0,0,0,0,0,0,0,0,0,0,0,0,0,0,0,0,0,0,0,0,0,0,0,0,0,0,0,0,0,0,0,0,0,0,0,0,0,0,0,0,0,0.0159,0.0159,0,0.0132,0.0132,0.0131,0.0118,0.0118,0.0118,0.0118,0.0051,0.0049,0.0048,0,0,0,0,0,0,0,0,0,0,0,0,0,0.0173,0.0173,0.0159,0.0159,0.0158,0.0132,0.0132,0.0131,0.0118,0.0118,0.0118,0.0118,0.0052,0.005,0.0047,0,0,0,0,0,0,0,0,0,0,0,0,0,0.0159,0.0173,0.0159,0.0149,0.0148,0.0132,0.0132,0.0131,0.0118,0.0118,0.0118,0.0118,0.0052,0.005,0.0047,0.0029,0,0,0.0039,0.0038,0,0,0,0,0,0,0,0,0.0159,0.0158,0.0151,0.0149,0.0148,0.0129,0.0113,0.0095,0.0118,0.0128,0.0118,0.0118,0.0074,0.0069,0.0064,0.0026,0.0023,0.0039,0.0037,0.0036,0.0035,0,0,0,0,0,0,0,0.0161,0.0159,0.0148,0.015,0.0149,0.0137,0.0135,0.0109,0.01,0.0127,0.0127,0.0124,0.0073,0.0067,0.0062,0.0023,0.0039,0.0036,0.0035,0.0034,-0.0035,-0.0036,0,0,0,0,0,0,0.0166,0.016,0.0149,0.0147,0.0155,0.0137,0.0135,0.0134,0.0101,0.0096,0.0124,0.0124,0.0071,0.0065,0.006,0.0042,0.0036,0.0033,0.0032,-0.0035,-0.0036,-0.0036,0,0,0,0,0,0,0.0167,0.0166,0.015,0.0153,0.015,0.0137,0.0136,0.0134,0.013,0.0099,0.0094,0.0123,0.0071,0.0063,0.004,0.0039,0.0032,0.003,-0.0035,-0.0035,-0.0036,0.0004,0,0,0,0,0,0,0.0167,0.0166,0.0167,0.0154,0.0151,0.0145,0.0136,0.0133,0.0129,0.0128,0.0096,0.009,0.007,0.0045,0.0038,0.0036,0.0028,-0.0035,-0.0035,-0.0036,0.0003,0.0005,0.0007,0,0,0,0,0,0.0168,0.0172,0.0167,0.0166,0.0153,0.0145,0.0142,0.0132,0.0129,0.0128,0.0108,0.0091,0.0037,0.0042,0.0034,0.0031,-0.0035,-0.0035,-0.0035,0.0002,0.0005,0.0007,0,0,0,0,0,0,0.0177,0.017,0.0165,0.0166,0.0157,0.0143,0.0142,0.0134,0.0118,0.0117,0.0089,0.0081,0.006,0.0039,0.0045,0.0009,-0.0002,-0.0004,0.0029,0.0031,0.0033,0.0049,0.0025,0,0,0,0,0,0.018,0.0183,0.0171,0.0172,0.0169,0.0156,0.0151,0.0144,0.0129,0.0122,0.0102,0.0076,0.0051,0.0037,0.0012,-0.0007,-0.003,-0.0016,-0.0014,-0.0012,-0.0005,-0.0036,-0.0036,-0.0037,-0.0037,-0.0037,0,0,0.0183,0.018,0.0181,0.0174,0.0167,0.0167,0.0153,0.0149,0.0147,0.0116,0.0107,0.0081,0.0047,0.0027,0.0015,0.001,-0.0026,-0.0012,-0.001,-0.0005,-0.0036,-0.0036,-0.0036,-0.0038,-0.0038,-0.0038,0,0,0.0194,0.0189,0.0196,0.0192,0.0185,0.0177,0.0177,0.0164,0.0156,0.0142,0.0119,0.0097,0.006,0.0039,0.0022,0.0018,-0.0014,0.0005,0.0028,-0.0002,-0.0001,-0.0002,-0.0037,-0.0041,0.0007,0.0007,0.0007,0,0.0197,0.0206,0.0195,0.0201,0.0204,0.0184,0.0193,0.0179,0.0159,0.0154,0.0144,0.0094,0.0068,0.0041,0.0042,0.0024,-0.0001,0.0024,0.0002,0.0002,0.0001,-0.0036,-0.004,0.0009,0.0008,0.0008,0.0008,0,0.0213,0.0221,0.0226,0.0229,0.0228,0.0232,0.0216,0.0209,0.0197,0.0184,0.0159,0.0121,0.0096,0.0078,0.006,0.0039,0.002,0.0009,0.0,0.0004,-0.0036,-0.0041,0.0011,0.0011,0.001,0.001,0,0,0.0217,0.0235,0.0236,0.0254,0.0246,0.0253,0.0244,0.0236,0.0241,0.0207,0.0205,0.0158,0.0141,0.012,0.0088,0.0061,0.0033,0.0038,0.0035,0.001,-0.0039,-0.0051,-0.0059,0.0018,0.0018,0.0017,-0.0067,0,0.0234,0.0265,0.0263,0.0291,0.0309,0.0292,0.0292,0.0281,0.0265,0.0256,0.0206,0.0193,0.0154,0.0148,0.0111,0.0057,0.0022,0.0056,-0.0045,-0.0048,-0.0053,-0.0064,0.0016,-0.0071,-0.0072,-0.0073,-0.0074,0,0.0249,0.0274,0.0308,0.034,0.0346,0.0357,0.0366,0.0363,0.0334,0.032,0.0287,0.0253,0.0205,0.0177,0.0075,0.0098,0.0035,-0.0014,-0.0018,-0.0044,-0.0069,-0.0075,-0.0084,-0.0083,-0.0082,-0.0081,-0.0081,0,0.0273,0.0306,0.0342,0.0351,0.0376,0.0389,0.0399,0.0386,0.0403,0.0365,0.0376,0.0297,0.0277,0.0182,0.0077,0.0078,-0.0038,-0.005,-0.0127,-0.0129,-0.011,-0.0109,-0.0122,-0.0122,-0.0122,-0.0122,-0.0122,0,0.0294,0.0325,0.0361,0.0383,0.0436,0.0432,0.0481,0.0467,0.047,0.0499,0.0419,0.0418,0.0281,0.0198,0.0089,-0.0038,-0.0035,-0.0125,-0.015,-0.0093,-0.0089,-0.0114,-0.0112,-0.0125,-0.0124,-0.0124,-0.0123,0,0.0317,0.0334,0.0388,0.0431,0.0452,0.0491,0.0557,0.0595,0.0574,0.0606,0.0602,0.0516,0.0398,0.0246,0.0089,-0.0006,-0.0136,-0.0184,-0.0118,-0.0138,-0.0211,-0.0206,-0.0273,-0.0274,-0.0275,-0.0276,-0.0277,0,0.0333,0.0361,0.0434,0.048,0.0507,0.0573,0.0628,0.0646,0.0687,0.0669,0.0688,0.0583,0.0505,0.0269,0.0098,-0.0133,-0.0163,-0.0235,-0.022,-0.0208,-0.0226,-0.022,-0.0214,-0.0278,-0.0278,-0.0279,-0.0279,0,0.0371,0.0394,0.0444,0.0536,0.0609,0.0695,0.0765,0.0808,0.0822,0.0814,0.0765,0.063,0.0488,0.0283,0.0094,-0.0068,-0.0191,-0.0245,-0.0244,-0.023,-0.0215,-0.0231,-0.0224,-0.0282,-0.0282,-0.0281,-0.0281,0,0.0402,0.0446,0.0509,0.0594,0.0687,0.0776,0.0818,0.0863,0.0898,0.0867,0.085,0.0676,0.0574,0.0316,0.0147,-0.0024,-0.0061,-0.0108,-0.0114,-0.0113,-0.0047,-0.0003,-0.0026,0,0,0,0,0,0.0427,0.048,0.0564,0.0657,0.0749,0.0801,0.0891,0.0923,0.0944,0.0925,0.0886,0.0746,0.0482,0.0366,0.0195,0.0125,-0.0095,-0.0081,-0.0152,-0.03,-0.0296,-0.0247,0,0,0,0,0,0,0.0449,0.052,0.0567,0.069,0.076,0.0868,0.0928,0.0947,0.0931,0.0915,0.078,0.0701,0.0447,0.0576,0.0189,0.0136,0.0068,-0.0208,-0.0212,-0.0302,-0.0298,-0.0296,-0.0244,0,0,0,0,0]}]]